EWG7NY LIMC-EDDS

Flight info

Callsign EWG7NY
Flight time 0h 35m
Altitude 24000
Route SRN6SXPEPAG2Q/35R PEPAG DCT ABESI N851 UTAVO DCT SOPER N851 ROMIR T125 REUTL REUTL1W
Aircraft A319/M-SDE3FGHIRWY/LB1

Departure

Time 2026-05-06 08:25
Airport Milan Malpensa International Airport (LIMC)

Arrival

Time 2026-05-06 09:00
Airport Stuttgart Airport (EDDS)
Time Latitude Longitude Altitude Speed Heading
2026-05-06 08:02 45.62533 8.71607 741 ft 0 kts 169°
2026-05-06 08:11 45.62548 8.71603 740 ft 4 kts 169°
2026-05-06 08:11 45.62574 8.71595 740 ft 4 kts 166°
2026-05-06 08:12 45.62600 8.71584 739 ft 4 kts 152°
2026-05-06 08:12 45.62618 8.71562 739 ft 3 kts 104°
2026-05-06 08:12 45.62617 8.71575 739 ft 4 kts 94°
2026-05-06 08:12 45.62620 8.71613 740 ft 4 kts 81°
2026-05-06 08:13 45.62625 8.71651 741 ft 4 kts 78°
2026-05-06 08:13 45.62631 8.71688 741 ft 4 kts 78°
2026-05-06 08:13 45.62635 8.71715 741 ft 0 kts 79°
2026-05-06 08:17 45.62637 8.71731 741 ft 4 kts 79°
2026-05-06 08:17 45.62646 8.71805 741 ft 11 kts 79°
2026-05-06 08:18 45.62666 8.71957 741 ft 19 kts 80°
2026-05-06 08:18 45.62575 8.72052 741 ft 21 kts 171°
2026-05-06 08:18 45.62424 8.72092 741 ft 24 kts 167°
2026-05-06 08:18 45.62251 8.72141 741 ft 27 kts 169°
2026-05-06 08:19 45.62059 8.72193 740 ft 29 kts 169°
2026-05-06 08:19 45.61863 8.72248 742 ft 29 kts 169°
2026-05-06 08:19 45.61678 8.72298 742 ft 27 kts 169°
2026-05-06 08:19 45.61495 8.72348 740 ft 24 kts 169°
2026-05-06 08:20 45.61369 8.72447 741 ft 21 kts 134°
2026-05-06 08:20 45.61244 8.72527 741 ft 20 kts 170°
2026-05-06 08:20 45.61117 8.72564 741 ft 16 kts 168°
2026-05-06 08:20 45.61080 8.72679 742 ft 14 kts 81°
2026-05-06 08:21 45.61096 8.72804 743 ft 12 kts 79°
2026-05-06 08:21 45.61110 8.72917 743 ft 12 kts 80°
2026-05-06 08:21 45.61127 8.73031 742 ft 12 kts 66°
2026-05-06 08:21 45.61185 8.73104 742 ft 11 kts 36°
2026-05-06 08:22 45.61247 8.73164 741 ft 11 kts 34°
2026-05-06 08:22 45.61309 8.73221 742 ft 11 kts 33°
2026-05-06 08:22 45.61375 8.73273 742 ft 12 kts 12°
2026-05-06 08:22 45.61463 8.73249 742 ft 15 kts 348°
2026-05-06 08:23 45.61568 8.73220 740 ft 16 kts 350°
2026-05-06 08:23 45.61621 8.73312 739 ft 14 kts 79°
2026-05-06 08:23 45.61627 8.73452 741 ft 15 kts 109°
2026-05-06 08:23 45.61581 8.73590 741 ft 18 kts 90°
2026-05-06 08:24 45.61627 8.73753 739 ft 12 kts 14°
2026-05-06 08:24 45.61691 8.73717 739 ft 15 kts 345°
2026-05-06 08:24 45.61948 8.73646 738 ft 70 kts 349°
2026-05-06 08:24 45.62628 8.73460 742 ft 127 kts 349°
2026-05-06 08:25 45.63667 8.73213 833 ft 162 kts
2026-05-06 08:25 45.64742 8.73064 1513 ft 153 kts
2026-05-06 08:25 45.65697 8.73658 1999 ft 151 kts 47°
2026-05-06 08:25 45.66228 8.74904 2570 ft 146 kts 76°
2026-05-06 08:26 45.66682 8.76209 3123 ft 153 kts 60°
2026-05-06 08:26 45.67464 8.77291 3629 ft 160 kts 47°
2026-05-06 08:26 45.68332 8.78319 4069 ft 168 kts 46°
2026-05-06 08:26 45.69288 8.79470 4298 ft 191 kts 45°
2026-05-06 08:27 45.70373 8.80774 4574 ft 215 kts 45°
2026-05-06 08:27 45.71475 8.82298 5113 ft 222 kts 56°
2026-05-06 08:27 45.72253 8.84258 5700 ft 229 kts 80°
2026-05-06 08:27 45.72294 8.86478 6556 ft 223 kts 109°
2026-05-06 08:28 45.71604 8.88397 7374 ft 220 kts 129°
2026-05-06 08:28 45.70697 8.90189 8232 ft 224 kts 130°
2026-05-06 08:28 45.69770 8.92001 9096 ft 227 kts 130°
2026-05-06 08:28 45.68828 8.93839 9941 ft 231 kts 130°
2026-05-06 08:29 45.67927 8.95781 10701 ft 240 kts 118°
2026-05-06 08:29 45.67619 8.98170 11437 ft 255 kts 89°
2026-05-06 08:29 45.68230 9.00652 11928 ft 283 kts 56°
2026-05-06 08:29 45.69820 9.02496 12231 ft 311 kts 22°
2026-05-06 08:30 45.71997 9.03263 12508 ft 335 kts
2026-05-06 08:30 45.74400 9.03433 12739 ft 357 kts 358°
2026-05-06 08:30 45.76955 9.03320 13046 ft 375 kts 355°
2026-05-06 08:30 45.79589 9.03141 13661 ft 382 kts 355°
2026-05-06 08:31 45.82279 9.03022 14281 ft 388 kts 357°
2026-05-06 08:31 45.84969 9.03001 14869 ft 394 kts 359°
2026-05-06 08:31 45.87728 9.03069 15501 ft 399 kts
2026-05-06 08:31 45.90515 9.03190 16125 ft 403 kts
2026-05-06 08:32 45.93335 9.03336 16749 ft 408 kts
2026-05-06 08:32 45.96186 9.03488 17366 ft 412 kts
2026-05-06 08:32 45.99071 9.03630 17979 ft 417 kts
2026-05-06 08:32 46.01994 9.03754 18527 ft 422 kts
2026-05-06 08:33 46.04940 9.03864 19107 ft 426 kts
2026-05-06 08:33 46.07920 9.03971 19683 ft 429 kts 360°
2026-05-06 08:33 46.10922 9.04081 20263 ft 434 kts
2026-05-06 08:33 46.13956 9.04193 20824 ft 437 kts
2026-05-06 08:34 46.17011 9.04139 21364 ft 440 kts 353°
2026-05-06 08:34 46.23121 9.03324 22382 ft 448 kts 353°
2026-05-06 08:34 46.26246 9.02905 22855 ft 453 kts 353°
2026-05-06 08:35 46.29413 9.02481 23376 ft 457 kts 353°
2026-05-06 08:35 46.32583 9.02054 23737 ft 460 kts 352°
2026-05-06 08:35 46.35775 9.01626 23847 ft 461 kts 353°
2026-05-06 08:35 46.38988 9.01197 23869 ft 463 kts 353°
2026-05-06 08:36 46.42199 9.00769 23877 ft 463 kts 353°
2026-05-06 08:36 46.45366 9.00344 23874 ft 462 kts 353°
2026-05-06 08:36 46.48575 8.99915 23866 ft 463 kts 352°
2026-05-06 08:36 46.51784 8.99482 23869 ft 463 kts 353°
2026-05-06 08:37 46.54986 8.99048 23868 ft 462 kts 353°
2026-05-06 08:37 46.58188 8.98615 23870 ft 462 kts 352°
2026-05-06 08:37 46.61394 8.98182 23867 ft 462 kts 353°
2026-05-06 08:37 46.64598 8.97750 23845 ft 461 kts 352°
2026-05-06 08:38 46.67797 8.97319 23840 ft 462 kts 353°
2026-05-06 08:38 46.71001 8.96889 23828 ft 463 kts 353°
2026-05-06 08:38 46.74215 8.96454 23860 ft 463 kts 353°
2026-05-06 08:38 46.77417 8.96021 23866 ft 462 kts 353°
2026-05-06 08:39 46.80616 8.95588 23860 ft 461 kts 353°
2026-05-06 08:39 46.83808 8.95156 23850 ft 459 kts 353°
2026-05-06 08:39 46.86990 8.94723 23850 ft 459 kts 353°
2026-05-06 08:39 46.90131 8.94296 23834 ft 458 kts 353°
2026-05-06 08:40 46.93307 8.93860 23834 ft 458 kts 353°
2026-05-06 08:40 46.96484 8.93418 23827 ft 458 kts 352°
2026-05-06 08:40 46.99656 8.93004 23819 ft 459 kts 355°
2026-05-06 08:40 47.02837 8.93369 23816 ft 460 kts 12°
2026-05-06 08:41 47.05908 8.94698 23823 ft 460 kts 18°
2026-05-06 08:41 47.08952 8.96131 23827 ft 459 kts 18°
2026-05-06 08:41 47.11988 8.97574 23827 ft 459 kts 18°
2026-05-06 08:41 47.15023 8.99027 23824 ft 459 kts 19°
2026-05-06 08:42 47.18063 9.00491 23822 ft 459 kts 19°
2026-05-06 08:42 47.21098 9.01952 23822 ft 459 kts 18°
2026-05-06 08:42 47.24132 9.03405 23820 ft 459 kts 19°
2026-05-06 08:42 47.27169 9.04850 23813 ft 459 kts 18°
2026-05-06 08:43 47.30210 9.06295 23815 ft 459 kts 18°
2026-05-06 08:43 47.33255 9.07749 23814 ft 460 kts 19°
2026-05-06 08:43 47.36293 9.09208 23811 ft 460 kts 19°
2026-05-06 08:43 47.39344 9.10677 23812 ft 460 kts 19°
2026-05-06 08:44 47.42391 9.12140 23810 ft 460 kts 19°
2026-05-06 08:44 47.45441 9.13603 23813 ft 461 kts 19°
2026-05-06 08:44 47.48448 9.15049 23815 ft 461 kts 19°
2026-05-06 08:44 47.51504 9.16522 23816 ft 461 kts 19°
2026-05-06 08:45 47.54558 9.17997 23815 ft 461 kts 19°
2026-05-06 08:45 47.57624 9.19481 23815 ft 461 kts 19°
2026-05-06 08:45 47.60667 9.20954 23813 ft 460 kts 19°
2026-05-06 08:45 47.63711 9.22428 23812 ft 461 kts 19°
2026-05-06 08:46 47.66725 9.23890 23820 ft 460 kts 19°
2026-05-06 08:46 47.69768 9.25367 23824 ft 460 kts 19°
2026-05-06 08:46 47.72807 9.26846 23827 ft 459 kts 19°
2026-05-06 08:46 47.75840 9.28320 23713 ft 457 kts 19°
2026-05-06 08:47 47.78912 9.29619 22747 ft 462 kts 11°
2026-05-06 08:47 47.82082 9.30209 22214 ft 455 kts
2026-05-06 08:47 47.85197 9.30523 21926 ft 443 kts
2026-05-06 08:47 47.87221 9.30872 21522 ft 440 kts
2026-05-06 08:48 47.90238 9.31573 20942 ft 436 kts 10°
2026-05-06 08:48 47.94173 9.32657 20191 ft 431 kts 11°
2026-05-06 08:48 47.97111 9.33482 19639 ft 428 kts 10°
2026-05-06 08:48 48.00029 9.34266 19088 ft 425 kts 10°
2026-05-06 08:49 48.01994 9.34765 18711 ft 423 kts
2026-05-06 08:49 48.04888 9.35461 18142 ft 420 kts
2026-05-06 08:49 48.07767 9.36123 17524 ft 416 kts
2026-05-06 08:49 48.10619 9.36767 16933 ft 411 kts
2026-05-06 08:50 48.13427 9.37403 16345 ft 406 kts
2026-05-06 08:50 48.16170 9.38033 15756 ft 401 kts
2026-05-06 08:50 48.18915 9.38677 15156 ft 397 kts
2026-05-06 08:50 48.21634 9.39324 14557 ft 393 kts
2026-05-06 08:51 48.24321 9.39965 13953 ft 390 kts
2026-05-06 08:51 48.26990 9.40600 13333 ft 386 kts
2026-05-06 08:51 48.29631 9.41231 12719 ft 382 kts
2026-05-06 08:51 48.32238 9.41853 12127 ft 377 kts
2026-05-06 08:52 48.34815 9.42467 11542 ft 373 kts
2026-05-06 08:52 48.37363 9.43069 10960 ft 368 kts
2026-05-06 08:52 48.39885 9.43662 10442 ft 363 kts
2026-05-06 08:52 48.42297 9.44230 10310 ft 347 kts
2026-05-06 08:53 48.44629 9.44785 10188 ft 333 kts
2026-05-06 08:53 48.46870 9.45326 10066 ft 320 kts
2026-05-06 08:53 48.49033 9.45852 9895 ft 311 kts
2026-05-06 08:53 48.51155 9.46366 9660 ft 305 kts
2026-05-06 08:54 48.53202 9.47199 9351 ft 306 kts 22°
2026-05-06 08:54 48.55152 9.48513 8978 ft 305 kts 24°
2026-05-06 08:54 48.57087 9.49837 8597 ft 303 kts 24°
2026-05-06 08:54 48.58998 9.51145 8241 ft 300 kts 24°
2026-05-06 08:55 48.60887 9.52436 7752 ft 296 kts 24°
2026-05-06 08:55 48.62757 9.53709 7163 ft 293 kts 23°
2026-05-06 08:55 48.64734 9.54456 6397 ft 295 kts
2026-05-06 08:55 48.66730 9.54020 5610 ft 295 kts 338°
2026-05-06 08:56 48.68454 9.52405 5177 ft 281 kts 316°
2026-05-06 08:56 48.69826 9.50452 4881 ft 268 kts 315°
2026-05-06 08:56 48.71160 9.48556 4562 ft 260 kts 316°
2026-05-06 08:56 48.72352 9.46492 4080 ft 263 kts 297°
2026-05-06 08:57 48.72841 9.43920 3784 ft 250 kts 271°
2026-05-06 08:57 48.72604 9.41388 3482 ft 238 kts 253°
2026-05-06 08:57 48.72158 9.39037 3181 ft 227 kts 253°
2026-05-06 08:57 48.71738 9.36802 2888 ft 213 kts 253°
2026-05-06 08:58 48.71352 9.34743 2641 ft 193 kts 254°
2026-05-06 08:58 48.71003 9.32886 2375 ft 174 kts 254°
2026-05-06 08:58 48.70695 9.31245 2157 ft 151 kts 254°
2026-05-06 08:58 48.70421 9.29788 1956 ft 140 kts 253°
2026-05-06 08:59 48.70159 9.28394 1766 ft 136 kts 252°
2026-05-06 08:59 48.69899 9.27022 1599 ft 136 kts 251°
2026-05-06 08:59 48.69642 9.25669 1420 ft 135 kts 251°
2026-05-06 08:59 48.69386 9.24304 1244 ft 135 kts 252°
2026-05-06 09:00 48.69145 9.23044 1216 ft 107 kts 253°
2026-05-06 09:00 48.68991 9.22209 1235 ft 62 kts 254°
2026-05-06 09:00 48.68888 9.21673 1254 ft 45 kts 254°
2026-05-06 09:00 48.68815 9.21260 1261 ft 39 kts 262°
2026-05-06 09:01 48.68853 9.20876 1271 ft 34 kts 284°
2026-05-06 09:01 48.68862 9.20605 1277 ft 24 kts 253°
2026-05-06 09:01 48.68814 9.20363 1285 ft 24 kts 253°
2026-05-06 09:01 48.68767 9.20121 1288 ft 22 kts 253°
2026-05-06 09:02 48.68787 9.19958 1294 ft 15 kts 314°
2026-05-06 09:02 48.68865 9.19884 1301 ft 12 kts 345°
2026-05-06 09:02 48.68887 9.19799 1305 ft 9 kts 255°
2026-05-06 09:02 48.68869 9.19716 1307 ft 9 kts 251°
2026-05-06 09:03 48.68849 9.19612 1309 ft 12 kts 254°
2026-05-06 09:03 48.68824 9.19471 1312 ft 15 kts 255°
2026-05-06 09:03 48.68792 9.19309 1314 ft 16 kts 253°
2026-05-06 09:03 48.68748 9.19248 1315 ft 7 kts 159°
2026-05-06 09:04 48.68729 9.19259 1314 ft 2 kts 162°
2026-05-06 09:04 48.68717 9.19264 1314 ft 2 kts 163°
2026-05-06 09:04 48.68716 9.19264 1314 ft 0 kts 164°